Content
SEND FEEDBACK

Daily
Averages
Monthly
Summary
United States of America

UPI, GUAM


Home > North America > United States > Guam
Elevation: 53 feet     Latitude: 13 34N     Longitude: 144 55E

WEATHER
 
SELECT A DAY
Number of Records: 215,592;   Date Range: 1/1/95 - 12/20/14
 
SHARE

PRINT THIS DATA

[ ← Previous Day ]
WEATHER ALMANAC - MAY 22, 2013
[ Next Day → ]
[ °C ]   °F
Weather ElementAverageHighLow
Temperature85.2 °F91 °F (12:54 pm)78.8 °F (8:18 am)
Dewpoint74.9 °F77 °F (4:54 am)72 °F (12:54 pm)
Humidity72 %89 % (8:18 am)53 % (12:54 pm)
Barometer29.89 in29.96 in (8:06 am)29.83 in (2:54 pm)
Wind Speed8.9 mph15 mph (8:06 am)
Wind Gust23 mph (8:06 am)
Weather ElementAverage
Visibility9.5 mi
Wind DirectionENE (66.2 °)

Weather ElementTotal
Precipitation0.31 in
Cooling Degree Days19.9 (Base 65)
Growing Degree Days34.9 (Base 50)
Averaged from 29 records on May 22, 2013
WEATHER CONDITIONS BREAKOUT
WIND DIRECTION BREAKOUT
WEATHER BY HOUR - MAY 22, 2013
[ °C ]   °F
Local TimeTemperatureDewpointHumidityBarometerVisibilityWind DirectionWind SpeedGust SpeedPrecipitationEventsConditions
1:54 AM82.9 °F75.0 °F77 %29.89 in10.0 miNE (50°)5.8 mphClear
2:54 AM82.0 °F75.0 °F79 %29.88 in10.0 miNNE (20°)3.5 mphClear
3:54 AM82.0 °F75.0 °F79 %29.87 in10.0 miNE (40°)4.6 mphClear
4:54 AM82.0 °F77.0 °F85 %29.88 in10.0 miENE (60°)8.1 mph0.01 inScattered Clouds
5:54 AM80.1 °F75.0 °F85 %29.89 in10.0 miNE (50°)8.1 mphScattered Clouds
6:54 AM81.0 °F75.9 °F85 %29.91 in10.0 miNE (50°)4.6 mphScattered Clouds
7:54 AM81.0 °F75.0 °F82 %29.92 in10.0 miNNE (20°)10.4 mph0.00 inMostly Cloudy
8:06 AM80.6 °F75.2 °F84 %29.96 in1.5 miNE (50°)15.0 mph23.0 mph0.01 inRainHeavy Rain
8:18 AM78.8 °F75.2 °F89 %29.96 in3.0 miNorth (10°)8.1 mph0.13 inRainLight Rain
8:54 AM84.0 °F75.0 °F74 %29.93 in10.0 miCalm0.13 inScattered Clouds
9:54 AM87.1 °F75.9 °F69 %29.91 in10.0 miENE (70°)9.2 mphScattered Clouds
10:01 AM87.8 °F75.2 °F66 %29.94 in10.0 miEast (80°)9.2 mphMostly Cloudy
10:13 AM89.6 °F75.2 °F62 %29.94 in10.0 miEast (80°)10.4 mphScattered Clouds
10:54 AM90.0 °F73.9 °F59 %29.90 in10.0 miEast (80°)11.5 mphScattered Clouds
11:23 AM89.6 °F75.2 °F62 %29.92 in10.0 miEast (90°)12.7 mphMostly Cloudy
11:43 AM89.6 °F73.4 °F59 %29.91 in10.0 miEast (100°)13.8 mphMostly Cloudy
11:54 AM90.0 °F73.9 °F59 %29.88 in10.0 miEast (80°)11.5 mphMostly Cloudy
12:54 PM91.0 °F72.0 °F53 %29.86 in10.0 miEast (100°)11.5 mphPartly Cloudy
1:54 PM90.0 °F73.0 °F57 %29.85 in10.0 miEast (90°)9.2 mphPartly Cloudy
2:54 PM91.0 °F73.0 °F55 %29.83 in10.0 miEast (100°)13.8 mph20.7 mphClear
3:54 PM90.0 °F72.0 °F55 %29.83 in10.0 miENE (70°)13.8 mphScattered Clouds
4:54 PM88.0 °F75.0 °F65 %29.83 in10.0 miENE (60°)11.5 mphScattered Clouds
5:54 PM84.9 °F77.0 °F77 %29.85 in10.0 miEast (80°)10.4 mph0.02 inClear
6:54 PM84.0 °F75.9 °F76 %29.86 in10.0 miEast (80°)6.9 mphPartly Cloudy
7:54 PM82.9 °F75.9 °F79 %29.89 in10.0 miEast (80°)6.9 mph0.01 inScattered Clouds
8:54 PM82.9 °F77.0 °F82 %29.90 in10.0 miEast (90°)4.6 mphClear
9:54 PM82.9 °F75.9 °F79 %29.91 in10.0 miEast (80°)5.8 mph0.00 inScattered Clouds
10:54 PM82.0 °F75.0 °F79 %29.90 in10.0 miENE (70°)9.2 mphMostly Cloudy
11:54 PM82.9 °F75.0 °F77 %29.89 in10.0 miEast (90°)8.1 mphClear
Hourly data recorded from PGUM, located miles away from Upi, Guam







STORIES FROM OUR PARTNERS